RYR9RJ EBCI-LKPR

Flight info

Callsign RYR9RJ
Flight time 1h 7m
Altitude 35000
Route SOPOK Y863 OGLOR DCT EMGOD DCT BOMBI DCT BOREP DCT TONSU Z35 ODOMO DCT LOMKI
Aircraft B38M/M-V/N

Departure

Time 2026-05-08 13:30
Airport Brussels South Charleroi Airport (EBCI)

Arrival

Time 2026-05-08 14:37
Airport Václav Havel Airport Prague (LKPR)
Time Latitude Longitude Altitude Speed Heading
2026-05-08 13:09 50.46870 4.47097 615 ft 0 kts 335°
2026-05-08 13:18 50.46859 4.47105 628 ft 3 kts 335°
2026-05-08 13:18 50.46841 4.47118 621 ft 3 kts 334°
2026-05-08 13:18 50.46827 4.47134 625 ft 3 kts 294°
2026-05-08 13:19 50.46826 4.47154 620 ft 2 kts 246°
2026-05-08 13:19 50.46831 4.47171 630 ft 3 kts 245°
2026-05-08 13:19 50.46836 4.47189 624 ft 0 kts 245°
2026-05-08 13:22 50.46831 4.47171 621 ft 5 kts 245°
2026-05-08 13:23 50.46812 4.47106 620 ft 8 kts 245°
2026-05-08 13:23 50.46788 4.47021 619 ft 9 kts 245°
2026-05-08 13:23 50.46758 4.46918 623 ft 11 kts 245°
2026-05-08 13:23 50.46722 4.46797 624 ft 13 kts 245°
2026-05-08 13:24 50.46682 4.46659 625 ft 15 kts 245°
2026-05-08 13:24 50.46641 4.46543 621 ft 8 kts 216°
2026-05-08 13:24 50.46583 4.46551 615 ft 10 kts 160°
2026-05-08 13:24 50.46524 4.46523 622 ft 10 kts 240°
2026-05-08 13:25 50.46495 4.46412 623 ft 12 kts 246°
2026-05-08 13:25 50.46458 4.46287 619 ft 13 kts 245°
2026-05-08 13:25 50.46417 4.46145 623 ft 15 kts 245°
2026-05-08 13:25 50.46371 4.45987 622 ft 17 kts 246°
2026-05-08 13:26 50.46320 4.45814 619 ft 18 kts 245°
2026-05-08 13:26 50.46266 4.45625 624 ft 20 kts 245°
2026-05-08 13:26 50.46207 4.45422 618 ft 21 kts 245°
2026-05-08 13:26 50.46144 4.45206 618 ft 23 kts 245°
2026-05-08 13:27 50.46085 4.45002 621 ft 15 kts 246°
2026-05-08 13:27 50.46040 4.44849 619 ft 13 kts 244°
2026-05-08 13:27 50.46029 4.44815 618 ft 4 kts 241°
2026-05-08 13:27 50.46005 4.44777 615 ft 8 kts 210°
2026-05-08 13:28 50.45957 4.44768 619 ft 7 kts 166°
2026-05-08 13:28 50.45911 4.44799 622 ft 7 kts 155°
2026-05-08 13:28 50.45871 4.44833 629 ft 5 kts 131°
2026-05-08 13:28 50.45869 4.44884 624 ft 6 kts 73°
2026-05-08 13:29 50.45876 4.44910 619 ft 5 kts 65°
2026-05-08 13:29 50.45976 4.45251 619 ft 75 kts 65°
2026-05-08 13:29 50.46300 4.46365 619 ft 148 kts 65°
2026-05-08 13:29 50.46802 4.48061 893 ft 190 kts 64°
2026-05-08 13:30 50.47362 4.49982 1993 ft 193 kts 64°
2026-05-08 13:30 50.48076 4.51750 3084 ft 196 kts 52°
2026-05-08 13:30 50.49100 4.53290 3762 ft 212 kts 36°
2026-05-08 13:30 50.50388 4.54517 4511 ft 223 kts 33°
2026-05-08 13:31 50.51631 4.56106 5125 ft 239 kts 51°
2026-05-08 13:31 50.52624 4.58326 5703 ft 258 kts 56°
2026-05-08 13:31 50.53710 4.60686 6324 ft 276 kts 54°
2026-05-08 13:31 50.54212 4.61747 6675 ft 278 kts 54°
2026-05-08 13:32 50.55326 4.64073 7644 ft 277 kts 54°
2026-05-08 13:32 50.56536 4.66573 8474 ft 286 kts 53°
2026-05-08 13:32 50.57752 4.69069 9383 ft 288 kts 53°
2026-05-08 13:32 50.58986 4.71591 10187 ft 295 kts 53°
2026-05-08 13:33 50.60249 4.74165 10770 ft 308 kts 53°
2026-05-08 13:33 50.61594 4.76906 11189 ft 326 kts 53°
2026-05-08 13:33 50.63031 4.79837 11650 ft 341 kts 53°
2026-05-08 13:33 50.64480 4.82796 12244 ft 350 kts 53°
2026-05-08 13:34 50.65642 4.86147 13084 ft 350 kts 73°
2026-05-08 13:34 50.65951 4.89940 13822 ft 353 kts 95°
2026-05-08 13:34 50.65423 4.93724 14534 ft 355 kts 108°
2026-05-08 13:34 50.64714 4.97473 15195 ft 359 kts 108°
2026-05-08 13:35 50.63988 5.01257 15915 ft 363 kts 108°
2026-05-08 13:35 50.63245 5.05069 16606 ft 366 kts 108°
2026-05-08 13:35 50.62489 5.08917 17298 ft 370 kts 109°
2026-05-08 13:35 50.61721 5.12807 17989 ft 373 kts 109°
2026-05-08 13:36 50.60947 5.16723 18625 ft 377 kts 109°
2026-05-08 13:36 50.60160 5.20690 19181 ft 381 kts 109°
2026-05-08 13:36 50.59138 5.24515 19723 ft 381 kts 124°
2026-05-08 13:36 50.57442 5.27706 20264 ft 382 kts 136°
2026-05-08 13:37 50.55577 5.30727 20764 ft 386 kts 136°
2026-05-08 13:37 50.53682 5.33738 21324 ft 389 kts 136°
2026-05-08 13:37 50.51757 5.36760 21840 ft 393 kts 137°
2026-05-08 13:37 50.49813 5.39779 22368 ft 396 kts 137°
2026-05-08 13:38 50.47834 5.42840 22876 ft 400 kts 137°
2026-05-08 13:38 50.45845 5.45908 23382 ft 403 kts 137°
2026-05-08 13:38 50.43836 5.49000 23859 ft 406 kts 137°
2026-05-08 13:38 50.41812 5.52113 24295 ft 408 kts 137°
2026-05-08 13:39 50.39776 5.55238 24738 ft 410 kts 137°
2026-05-08 13:39 50.37731 5.58377 25166 ft 413 kts 137°
2026-05-08 13:39 50.35674 5.61526 25591 ft 415 kts 137°
2026-05-08 13:39 50.33606 5.64690 26008 ft 417 kts 137°
2026-05-08 13:40 50.31521 5.67875 26421 ft 419 kts 137°
2026-05-08 13:40 50.29430 5.71066 26816 ft 421 kts 137°
2026-05-08 13:40 50.27333 5.74278 27203 ft 424 kts 136°
2026-05-08 13:40 50.25576 5.77994 27604 ft 429 kts 119°
2026-05-08 13:41 50.24528 5.82383 27997 ft 434 kts 107°
2026-05-08 13:41 50.23720 5.86946 28312 ft 437 kts 107°
2026-05-08 13:41 50.22918 5.91530 28682 ft 439 kts 107°
2026-05-08 13:41 50.22124 5.96149 29057 ft 441 kts 107°
2026-05-08 13:42 50.21332 6.00792 29403 ft 444 kts 107°
2026-05-08 13:42 50.20536 6.05470 29738 ft 446 kts 107°
2026-05-08 13:42 50.19736 6.10160 30084 ft 448 kts 107°
2026-05-08 13:42 50.18933 6.14860 30353 ft 451 kts 107°
2026-05-08 13:43 50.18398 6.19697 30606 ft 456 kts 92°
2026-05-08 13:43 50.18601 6.24637 30909 ft 458 kts 86°
2026-05-08 13:43 50.18882 6.29617 31095 ft 462 kts 86°
2026-05-08 13:43 50.19175 6.34624 31382 ft 464 kts 86°
2026-05-08 13:44 50.19479 6.39633 31626 ft 466 kts 86°
2026-05-08 13:44 50.19788 6.44685 31862 ft 469 kts 86°
2026-05-08 13:44 50.20099 6.49770 32119 ft 471 kts 86°
2026-05-08 13:44 50.20408 6.54867 32389 ft 473 kts 86°
2026-05-08 13:45 50.20715 6.59971 32713 ft 472 kts 86°
2026-05-08 13:45 50.20937 6.65084 33056 ft 471 kts 92°
2026-05-08 13:45 50.20860 6.70176 33382 ft 470 kts 93°
2026-05-08 13:45 50.20783 6.75286 33705 ft 470 kts 93°
2026-05-08 13:46 50.20695 6.80391 34040 ft 470 kts 94°
2026-05-08 13:46 50.20604 6.85492 34319 ft 470 kts 94°
2026-05-08 13:46 50.20509 6.90585 34552 ft 471 kts 93°
2026-05-08 13:46 50.20412 6.95693 34802 ft 471 kts 93°
2026-05-08 13:47 50.20347 6.99084 34962 ft 471 kts 93°
2026-05-08 13:47 50.20246 7.04204 35090 ft 472 kts 93°
2026-05-08 13:47 50.20038 7.14423 35106 ft 471 kts 94°
2026-05-08 13:48 50.19825 7.24444 35099 ft 471 kts 94°
2026-05-08 13:48 50.19442 7.34826 35102 ft 469 kts 99°
2026-05-08 13:49 50.18568 7.44912 35104 ft 469 kts 99°
2026-05-08 13:49 50.17664 7.54994 35103 ft 469 kts 100°
2026-05-08 13:50 50.16750 7.65062 35104 ft 469 kts 100°
2026-05-08 13:50 50.15827 7.75126 35108 ft 469 kts 100°
2026-05-08 13:51 50.14896 7.85177 35106 ft 468 kts 100°
2026-05-08 13:51 50.13957 7.95226 35109 ft 469 kts 100°
2026-05-08 13:52 50.13047 8.04861 35109 ft 468 kts 100°
2026-05-08 13:52 50.12135 8.14439 35109 ft 469 kts 100°
2026-05-08 13:53 50.11170 8.24479 35109 ft 468 kts 100°
2026-05-08 13:53 50.10196 8.34524 35107 ft 468 kts 100°
2026-05-08 13:54 50.09214 8.44547 35108 ft 468 kts 100°
2026-05-08 13:54 50.08223 8.54571 35102 ft 468 kts 100°
2026-05-08 13:55 50.07225 8.64584 35102 ft 468 kts 100°
2026-05-08 13:56 50.05739 8.79613 35095 ft 469 kts 96°
2026-05-08 13:56 50.05385 8.89746 35101 ft 469 kts 95°
2026-05-08 13:57 50.04957 8.99891 35103 ft 469 kts 95°
2026-05-08 13:57 50.04504 9.10012 35105 ft 469 kts 95°
2026-05-08 13:58 50.04039 9.20209 35100 ft 469 kts 95°
2026-05-08 13:58 50.03568 9.30336 35104 ft 469 kts 95°
2026-05-08 13:59 50.03088 9.40450 35104 ft 469 kts 95°
2026-05-08 13:59 50.02602 9.50510 35110 ft 469 kts 95°
2026-05-08 14:00 50.02101 9.60686 35106 ft 469 kts 96°
2026-05-08 14:00 50.01598 9.70745 35115 ft 470 kts 96°
2026-05-08 14:01 50.01082 9.80877 35127 ft 470 kts 96°
2026-05-08 14:01 50.00558 9.90994 35119 ft 469 kts 96°
2026-05-08 14:02 50.00024 10.01109 35128 ft 470 kts 96°
2026-05-08 14:02 49.99482 10.11222 35127 ft 470 kts 96°
2026-05-08 14:03 49.98932 10.21335 35123 ft 470 kts 96°
2026-05-08 14:03 49.98447 10.30104 35123 ft 470 kts 96°
2026-05-08 14:04 49.97901 10.39829 35128 ft 470 kts 96°
2026-05-08 14:04 49.97326 10.49952 35122 ft 470 kts 96°
2026-05-08 14:05 49.96746 10.60049 35122 ft 470 kts 96°
2026-05-08 14:05 49.96657 10.70197 35121 ft 471 kts 90°
2026-05-08 14:06 49.96730 10.80374 35109 ft 471 kts 90°
2026-05-08 14:06 49.96802 10.90543 35109 ft 471 kts 90°
2026-05-08 14:07 49.96866 11.00713 35108 ft 471 kts 90°
2026-05-08 14:07 49.96921 11.10885 35108 ft 471 kts 90°
2026-05-08 14:08 49.96963 11.21059 35107 ft 471 kts 91°
2026-05-08 14:08 49.96651 11.31218 35112 ft 471 kts 94°
2026-05-08 14:09 49.96348 11.41373 35116 ft 471 kts 93°
2026-05-08 14:09 49.96043 11.51526 35117 ft 471 kts 93°
2026-05-08 14:10 49.95727 11.61685 35109 ft 471 kts 94°
2026-05-08 14:10 49.95375 11.71838 35102 ft 471 kts 94°
2026-05-08 14:11 49.95018 11.81996 35103 ft 471 kts 94°
2026-05-08 14:11 49.94660 11.92157 35101 ft 471 kts 93°
2026-05-08 14:12 49.94459 12.02325 35098 ft 471 kts 92°
2026-05-08 14:12 49.94237 12.12507 35101 ft 472 kts 93°
2026-05-08 14:13 49.94005 12.22678 35103 ft 472 kts 93°
2026-05-08 14:13 49.93764 12.32824 35100 ft 472 kts 93°
2026-05-08 14:13 49.93624 12.37888 34972 ft 466 kts 93°
2026-05-08 14:14 49.93485 12.42887 34638 ft 461 kts 93°
2026-05-08 14:14 49.93346 12.47819 34146 ft 456 kts 93°
2026-05-08 14:14 49.93206 12.52732 33520 ft 454 kts 93°
2026-05-08 14:14 49.93065 12.57605 32987 ft 451 kts 93°
2026-05-08 14:15 49.92922 12.62444 32527 ft 446 kts 94°
2026-05-08 14:15 49.92780 12.67215 32054 ft 443 kts 94°
2026-05-08 14:15 49.92636 12.71984 31546 ft 440 kts 94°
2026-05-08 14:15 49.92492 12.76712 31072 ft 437 kts 94°
2026-05-08 14:16 49.92346 12.81407 30593 ft 435 kts 94°
2026-05-08 14:16 49.92199 12.86072 30096 ft 432 kts 94°
2026-05-08 14:16 49.92052 12.90724 29541 ft 430 kts 94°
2026-05-08 14:16 49.91903 12.95324 29036 ft 427 kts 94°
2026-05-08 14:17 49.91753 12.99932 28577 ft 423 kts 94°
2026-05-08 14:17 49.91603 13.04470 28098 ft 420 kts 94°
2026-05-08 14:17 49.91453 13.08982 27624 ft 418 kts 94°
2026-05-08 14:17 49.91301 13.13469 27150 ft 415 kts 94°
2026-05-08 14:18 49.91149 13.17927 26680 ft 413 kts 94°
2026-05-08 14:18 49.90997 13.22358 26218 ft 411 kts 94°
2026-05-08 14:18 49.90841 13.26784 25675 ft 411 kts 94°
2026-05-08 14:18 49.90684 13.31207 25208 ft 409 kts 94°
2026-05-08 14:19 49.90526 13.35596 24768 ft 407 kts 94°
2026-05-08 14:19 49.90368 13.39958 24320 ft 405 kts 94°
2026-05-08 14:19 49.90263 13.44327 23832 ft 405 kts 86°
2026-05-08 14:19 49.90840 13.48582 23233 ft 404 kts 67°
2026-05-08 14:20 49.92225 13.52323 22806 ft 398 kts 52°
2026-05-08 14:20 49.93863 13.55734 22406 ft 393 kts 52°
2026-05-08 14:20 49.95502 13.59122 21964 ft 390 kts 51°
2026-05-08 14:20 49.97138 13.62468 21518 ft 388 kts 51°
2026-05-08 14:21 49.98772 13.65793 21070 ft 386 kts 51°
2026-05-08 14:21 50.00391 13.69083 20638 ft 384 kts 51°
2026-05-08 14:21 50.02014 13.72382 20202 ft 382 kts 51°
2026-05-08 14:21 50.03626 13.75662 19770 ft 380 kts 51°
2026-05-08 14:22 50.05225 13.78916 19339 ft 378 kts 51°
2026-05-08 14:22 50.06803 13.82174 18890 ft 377 kts 54°
2026-05-08 14:22 50.07880 13.85899 18389 ft 379 kts 76°
2026-05-08 14:22 50.08331 13.89681 17953 ft 376 kts 79°
2026-05-08 14:23 50.08811 13.93683 17515 ft 374 kts 79°
2026-05-08 14:23 50.09272 13.97646 17079 ft 371 kts 79°
2026-05-08 14:23 50.09723 14.01590 16649 ft 368 kts 79°
2026-05-08 14:23 50.10168 14.05514 16220 ft 366 kts 80°
2026-05-08 14:24 50.10607 14.09410 15785 ft 364 kts 80°
2026-05-08 14:24 50.11041 14.13279 15356 ft 362 kts 80°
2026-05-08 14:24 50.11471 14.17126 14932 ft 360 kts 80°
2026-05-08 14:24 50.11755 14.19664 14649 ft 358 kts 80°
2026-05-08 14:25 50.12272 14.24313 14132 ft 356 kts 80°
2026-05-08 14:25 50.12693 14.28108 13678 ft 355 kts 80°
2026-05-08 14:25 50.13111 14.31889 13219 ft 353 kts 80°
2026-05-08 14:25 50.13520 14.35651 12772 ft 350 kts 82°
2026-05-08 14:26 50.13429 14.39396 12283 ft 349 kts 105°
2026-05-08 14:26 50.12399 14.42766 11875 ft 343 kts 128°
2026-05-08 14:26 50.10955 14.45702 11514 ft 339 kts 128°
2026-05-08 14:26 50.09540 14.48633 11093 ft 338 kts 128°
2026-05-08 14:27 50.08129 14.51540 10685 ft 337 kts 128°
2026-05-08 14:27 50.07197 14.53455 10517 ft 332 kts 128°
2026-05-08 14:27 50.05825 14.56274 10360 ft 321 kts 128°
2026-05-08 14:27 50.04491 14.59007 10147 ft 314 kts 129°
2026-05-08 14:28 50.03165 14.61721 9718 ft 314 kts 129°
2026-05-08 14:28 50.01847 14.64419 9287 ft 311 kts 129°
2026-05-08 14:28 50.00558 14.67052 8922 ft 300 kts 128°
2026-05-08 14:28 49.99320 14.69578 8640 ft 287 kts 129°
2026-05-08 14:29 49.98138 14.71979 8393 ft 272 kts 130°
2026-05-08 14:29 49.96740 14.73794 8058 ft 257 kts 158°
2026-05-08 14:29 49.95042 14.74420 7731 ft 249 kts 181°
2026-05-08 14:29 49.93367 14.73945 7355 ft 245 kts 207°
2026-05-08 14:30 49.92068 14.72305 6940 ft 244 kts 235°
2026-05-08 14:30 49.91406 14.69910 6576 ft 243 kts 259°
2026-05-08 14:30 49.91187 14.67312 6222 ft 243 kts 271°
2026-05-08 14:30 49.91592 14.64802 5884 ft 244 kts 296°
2026-05-08 14:31 49.92484 14.62592 5682 ft 238 kts 303°
2026-05-08 14:31 49.93420 14.60531 5522 ft 227 kts 304°
2026-05-08 14:31 49.94320 14.58616 5385 ft 212 kts 305°
2026-05-08 14:32 49.95942 14.55225 5110 ft 188 kts 306°
2026-05-08 14:32 49.96715 14.53622 4970 ft 188 kts 306°
2026-05-08 14:32 49.97497 14.52002 4841 ft 184 kts 306°
2026-05-08 14:32 49.98246 14.50460 4680 ft 176 kts 306°
2026-05-08 14:33 49.98975 14.48955 4465 ft 173 kts 307°
2026-05-08 14:33 49.99698 14.47463 4263 ft 173 kts 307°
2026-05-08 14:33 50.00420 14.45978 4051 ft 172 kts 307°
2026-05-08 14:33 50.01138 14.44498 3837 ft 170 kts 308°
2026-05-08 14:34 50.01823 14.43086 3646 ft 158 kts 308°
2026-05-08 14:34 50.02471 14.41750 3445 ft 154 kts 308°
2026-05-08 14:34 50.03109 14.40432 3238 ft 154 kts 309°
2026-05-08 14:34 50.03759 14.39097 3068 ft 154 kts 308°
2026-05-08 14:35 50.04395 14.37768 2801 ft 152 kts 309°
2026-05-08 14:35 50.05027 14.36465 2601 ft 151 kts 309°
2026-05-08 14:35 50.05654 14.35165 2383 ft 150 kts 309°
2026-05-08 14:35 50.06283 14.33865 2188 ft 151 kts 309°
2026-05-08 14:36 50.06855 14.32706 2017 ft 148 kts 309°
2026-05-08 14:36 50.07467 14.31424 1770 ft 149 kts 308°
2026-05-08 14:36 50.08083 14.30121 1582 ft 149 kts 310°
2026-05-08 14:36 50.08711 14.28855 1375 ft 147 kts 310°
2026-05-08 14:37 50.09320 14.27606 1230 ft 138 kts 309°
2026-05-08 14:37 50.09772 14.26672 1216 ft 89 kts 306°
2026-05-08 14:37 50.10078 14.26031 1195 ft 67 kts 307°
2026-05-08 14:37 50.10274 14.25694 1190 ft 22 kts 334°
2026-05-08 14:38 50.10362 14.25657 1188 ft 12 kts 354°
2026-05-08 14:38 50.10418 14.25657 1188 ft 7 kts
2026-05-08 14:38 50.10472 14.25684 1188 ft 9 kts 45°
2026-05-08 14:38 50.10489 14.25760 1188 ft 7 kts 77°
2026-05-08 14:39 50.10499 14.25843 1187 ft 9 kts 79°
2026-05-08 14:39 50.10514 14.25956 1186 ft 10 kts 78°
2026-05-08 14:39 50.10527 14.26062 1183 ft 11 kts 79°
2026-05-08 14:39 50.10539 14.26164 1180 ft 9 kts 84°
2026-05-08 14:40 50.10528 14.26258 1177 ft 10 kts 117°
2026-05-08 14:40 50.10495 14.26336 1176 ft 6 kts 124°
2026-05-08 14:40 50.10469 14.26394 1180 ft 9 kts 124°
2026-05-08 14:40 50.10433 14.26474 1179 ft 8 kts 124°
2026-05-08 14:41 50.10420 14.26498 1178 ft 1 kts 133°
2026-05-08 14:41 50.10415 14.26506 1176 ft 1 kts 134°
2026-05-08 14:41 50.10409 14.26543 1178 ft 5 kts 77°
2026-05-08 14:41 50.10423 14.26567 1178 ft 2 kts 37°
2026-05-08 14:42 50.10433 14.26578 1178 ft 1 kts 36°
2026-05-08 14:42 50.10436 14.26581 1178 ft 0 kts 34°